TimeCDT,TemperatureF,Dew PointF,Humidity,Sea Level PressureIn,VisibilityMPH,Wind Direction,Wind SpeedMPH,Gust SpeedMPH,PrecipitationIn,Events,Conditions,WindDirDegrees,DateUTC
12:04 AM,50.0,46.4,87,29.92,2.5,SE,10.4,18.4,0.09,Rain,Heavy Rain,140,2013-10-15 05:04:00
12:29 AM,48.2,46.4,93,29.91,3.0,SE,12.7,-,0.27,Rain-Thunderstorm,Heavy Rain,140,2013-10-15 05:29:00
12:53 AM,48.9,46.9,93,29.88,5.0,SE,13.8,-,0.34,Rain,Rain,130,2013-10-15 05:53:00
1:53 AM,48.0,46.9,96,29.84,6.0,SE,11.5,21.9,0.18,Rain,Light Rain,140,2013-10-15 06:53:00
2:51 AM,48.2,46.4,93,29.79,10.0,SE,21.9,28.8,0.01,Rain,Light Rain,140,2013-10-15 07:51:00
2:53 AM,48.9,46.9,93,29.78,10.0,SE,20.7,27.6,0.01,Rain,Light Rain,130,2013-10-15 07:53:00
3:44 AM,50.0,48.2,94,29.78,9.0,SE,18.4,25.3,0.00,Rain,Light Rain,140,2013-10-15 08:44:00
3:53 AM,50.0,48.9,96,29.76,9.0,SSE,19.6,25.3,0.01,Rain,Light Rain,150,2013-10-15 08:53:00
4:37 AM,51.8,50.0,94,29.77,7.0,SE,18.4,24.2,0.00,,Overcast,140,2013-10-15 09:37:00
4:53 AM,51.1,51.1,100,29.74,8.0,SE,15.0,-,0.00,,Overcast,140,2013-10-15 09:53:00
5:40 AM,51.8,51.8,100,29.74,6.0,SSE,13.8,-,0.00,Rain,Light Rain,150,2013-10-15 10:40:00
5:53 AM,53.1,52.0,96,29.73,6.0,SSE,13.8,-,0.00,,Overcast,150,2013-10-15 10:53:00
6:24 AM,53.6,51.8,94,29.75,10.0,SSW,15.0,24.2,0.00,,Overcast,210,2013-10-15 11:24:00
6:53 AM,53.1,51.1,93,29.74,10.0,SW,18.4,25.3,0.00,,Overcast,220,2013-10-15 11:53:00
7:03 AM,51.8,50.0,94,29.75,10.0,SW,19.6,-,N/A,,Overcast,220,2013-10-15 12:03:00
7:40 AM,51.8,48.2,88,29.75,10.0,SW,13.8,-,N/A,,Overcast,220,2013-10-15 12:40:00
7:53 AM,51.1,48.9,92,29.75,10.0,SSW,13.8,-,N/A,,Overcast,210,2013-10-15 12:53:00
8:09 AM,50.0,48.2,94,29.76,5.0,SW,13.8,-,0.00,,Overcast,220,2013-10-15 13:09:00
8:53 AM,50.0,48.9,96,29.77,10.0,SSW,12.7,-,0.00,,Overcast,210,2013-10-15 13:53:00
9:48 AM,50.0,48.2,94,29.78,8.0,SW,13.8,-,0.00,Rain,Light Rain,230,2013-10-15 14:48:00
9:53 AM,48.9,48.0,97,29.77,6.0,SW,13.8,-,0.00,Rain,Light Rain,230,2013-10-15 14:53:00
10:06 AM,48.2,46.4,93,29.78,10.0,WSW,16.1,20.7,0.00,Rain,Light Rain,240,2013-10-15 15:06:00
10:17 AM,48.2,46.4,93,29.78,10.0,SW,16.1,25.3,0.00,,Overcast,230,2013-10-15 15:17:00
10:53 AM,48.0,44.1,86,29.78,10.0,WSW,16.1,-,0.00,,Overcast,240,2013-10-15 15:53:00
11:24 AM,48.2,44.6,87,29.79,10.0,WSW,17.3,25.3,N/A,,Overcast,240,2013-10-15 16:24:00
11:53 AM,48.0,44.1,86,29.79,10.0,SW,18.4,24.2,N/A,,Overcast,220,2013-10-15 16:53:00
12:53 PM,46.9,42.1,83,29.79,10.0,SW,16.1,27.6,N/A,,Overcast,230,2013-10-15 17:53:00
1:53 PM,46.9,42.1,83,29.78,10.0,SW,18.4,26.5,N/A,,Overcast,230,2013-10-15 18:53:00
2:53 PM,46.9,43.0,86,29.78,10.0,SW,17.3,23.0,N/A,,Overcast,230,2013-10-15 19:53:00
3:53 PM,46.9,44.1,90,29.77,10.0,WSW,16.1,27.6,N/A,,Overcast,240,2013-10-15 20:53:00
4:43 PM,46.4,44.6,93,29.77,3.0,SW,16.1,24.2,0.00,Rain,Light Rain,220,2013-10-15 21:43:00
4:53 PM,46.0,46.0,100,29.76,3.0,SW,15.0,25.3,0.00,Rain,Light Rain,220,2013-10-15 21:53:00
5:53 PM,48.0,46.9,96,29.76,3.0,SW,10.4,-,0.00,,Overcast,230,2013-10-15 22:53:00
6:53 PM,48.0,46.9,96,29.77,3.0,West,15.0,-,0.01,,Overcast,260,2013-10-15 23:53:00
7:53 PM,46.9,46.0,97,29.80,3.0,West,13.8,-,N/A,,Overcast,260,2013-10-16 00:53:00
8:15 PM,46.4,46.4,100,29.81,2.5,West,16.1,-,N/A,,Overcast,260,2013-10-16 01:15:00
8:34 PM,46.4,46.4,100,29.82,3.0,West,16.1,-,N/A,,Overcast,260,2013-10-16 01:34:00
8:53 PM,46.9,46.0,97,29.82,3.0,West,17.3,23.0,0.01,,Overcast,270,2013-10-16 01:53:00
9:53 PM,46.0,46.0,100,29.83,4.0,West,17.3,-,0.01,,Overcast,280,2013-10-16 02:53:00
10:53 PM,46.0,46.0,100,29.84,8.0,West,17.3,-,N/A,,Overcast,280,2013-10-16 03:53:00
11:53 PM,46.0,46.0,100,29.85,6.0,WNW,15.0,-,N/A,,Overcast,290,2013-10-16 04:53:00